Satellite: NOAA-17
Catalog number: 27453
Epoch time:      12252.18920900
Element set:    0828
Inclination:      098.3314 deg
RA of node:       275.0182 deg
Eccentricity:    0.0010729
Arg of perigee:   274.3074 deg
Mean anomaly:     085.6911 deg
Mean motion:   14.24478939 rev/day
Decay rate:       1.79e-06 rev/day^2
Epoch rev:           53057
Checksum:              315

Satellite: NOAA-18
Catalog number: 28654
Epoch time:      12252.27510877
Element set:    0310
Inclination:      099.0548 deg
RA of node:       211.0920 deg
Eccentricity:    0.0013532
Arg of perigee:   283.7525 deg
Mean anomaly:     076.2147 deg
Mean motion:   14.11696133 rev/day
Decay rate:       1.54e-06 rev/day^2
Epoch rev:           37628
Checksum:              291

Satellite: NOAA-19
Catalog number: 33591
Epoch time:      12252.30171983
Element set:    0499
Inclination:      098.8683 deg
RA of node:       191.0788 deg
Eccentricity:    0.0014461
Arg of perigee:   143.0753 deg
Mean anomaly:     217.1419 deg
Mean motion:   14.11383050 rev/day
Decay rate:       3.13e-06 rev/day^2
Epoch rev:           18473
Checksum:              303

/EX
SB KEPS @ AMSAT  $ORB12253.M
Orbital Elements  12253.MISC

HR AMSAT ORBITAL ELEMENTS FOR MANNED AND MISCELLANEOUS SATELLITES
FROM WA5QGD FORT WORTH,TX September 9, 2012
Send SUBSCRIBE KEPS/UNSUBSCRIBE KEPS to majordomo@amsat.org only
BID: ORB12253.M
TO ALL RADIO AMATEURS BT

Satellite: HUBBLE
Catalog number: 20580
Epoch time:      12250.61945086
Element set:    0065
Inclination:      028.4710 deg
RA of node:       330.5555 deg
Eccentricity:    0.0003584
Arg of perigee:   202.3050 deg
Mean anomaly:     157.7335 deg
Mean motion:   15.02755706 rev/day
Decay rate:      2.970e-05 rev/day^2
Epoch rev:           02699
Checksum:              276

Satellite: ISS
Catalog number: 25544
Epoch time:      12252.93488678
Element set:    0266
Inclination:      051.6467 deg
RA of node:       064.8635 deg
Eccentricity:    0.0015615
Arg of perigee:   050.3777 deg
Mean anomaly:     104.0148 deg
Mean motion:   15.50478392 rev/day
Decay rate:     1.4780e-04 rev/day^2
Epoch rev:           79103
Checksum:              316

Satellite: CO-58
Catalog number: 28895
Epoch time:      12252.17578731
Element set:    0271
Inclination:      097.9023 deg
RA of node:       114.7517 deg
Eccentricity:    0.0016482
Arg of perigee:   250.0885 deg
Mean anomaly:     109.8515 deg
Mean motion:   14.60734281 rev/day
Decay rate:       9.20e-06 rev/day^2
Epoch rev:           36577
Checksum:              325

Satellite: FALCON
Catalog number: 30776
Epoch time:      12252.95071647
Element set:    0457
Inclination:      035.4324 deg
RA of node:       125.0030 deg
Eccentricity:    0.0002218
Arg of perigee:   354.1062 deg
Mean anomaly:     005.9629 deg
Mean motion:   15.08142591 rev/day
Decay rate:      6.667e-05 rev/day^2
Epoch rev:           30290
Checksum:              270

Satellite: MAST
Catalog number: 31126
Epoch time:      12252.96062254
Element set:    0556
Inclination:      097.8756 deg
RA of node:       259.1699 deg
Eccentricity:    0.0092895
Arg of perigee:   209.0992 deg
Mean anomaly:     150.5011 deg
Mean motion:   14.54247404 rev/day
Decay rate:       6.20e-06 rev/day^2
Epoch rev:           28644
Checksum:              311

Satellite: CAPE1
Catalog number: 31130
Epoch time:      12251.96414388
Element set:    0561
Inclination:      097.8842 deg
RA of node:       254.5713 deg
Eccentricity:    0.0100168
Arg of perigee:   225.9932 deg
Mean anomaly:     133.2998 deg
Mean motion:   14.53055244 rev/day
Decay rate:       9.38e-06 rev/day^2
Epoch rev:           28579
Checksum:              316

Satellite: COMPASS
Catalog number: 32787
Epoch time:      12253.20917407
Element set:     404
Inclination:      097.7919 deg
RA of node:       312.6640 deg
Eccentricity:    0.0015960
Arg of perigee:   141.7251 deg
Mean anomaly:     218.5107 deg
Mean motion:   14.84310326 rev/day
Decay rate:      3.448e-05 rev/day^2
Epoch rev:           23627
Checksum:              287

Satellite: AAUSAT2
Catalog number: 32788
Epoch time:      12252.14896534
Element set:    0397
Inclination:      097.7937 deg
RA of node:       312.0577 deg
Eccentricity:    0.0015256
Arg of perigee:   143.2476 deg
Mean anomaly:     216.9808 deg
Mean motion:   14.84650420 rev/day
Decay rate:      3.685e-05 rev/day^2
Epoch rev:           23614
Checksum:              328

Satellite: DO-64
Catalog number: 32789
Epoch time:      12252.17508551
Element set:    0413
Inclination:      097.8053 deg
RA of node:       314.4336 deg
Eccentricity:    0.0015343
Arg of perigee:   141.4796 deg
Mean anomaly:     218.7477 deg
Mean motion:   14.86348999 rev/day
Decay rate:      5.694e-05 rev/day^2
Epoch rev:           23620
Checksum:              338

Satellite: CO-66
Catalog number: 32791
Epoch time:      12252.15420178
Element set:    0393
Inclination:      097.7902 deg
RA of node:       311.3047 deg
Eccentricity:    0.0016608
Arg of perigee:   145.6797 deg
Mean anomaly:     214.5489 deg
Mean motion:   14.83666698 rev/day
Decay rate:      2.810e-05 rev/day^2
Epoch rev:           23604
Checksum:              327

